THORAD AGENA D DEB *, 5824

Orbit data source: Space-Track

THORAD AGENA D DEB *, 5824 is space debris in SSO originally from a launch on Wed, 08 Apr 1970 UTC launched from the Air Force Western Test Range (AFWTR). Debris objects in space refer to the collection of defunct objects orbiting the Earth. Examples of debris include non-operational satellites, rocket bodies, and fragments generated from explosions, collisions, or faulty payload assembly.

Loading next visibility...
Identifier
5824, 1970-025MJ
Orbit
SSO
Country
Flag of USUS
Related business
Manufacturer
Unknown
Mission
Spacecraft
Bus & Motor
Unknown
Mass
Unknown
Launch date (UTC)
1970-04-08 (56 years ago)
Launch vehicle
Unknown
Launch site
Air Force Western Test Range (AFWTR)
Object type
Payload
Rocket body
Debris
Shape & HBR
Unknown shape, 0.1 m
Radar Cross Section
Small (<0.1 m²)

Expand to show TLE details & history
Last TLE update: 16 hours ago

TLE from 16 hours ago
0 THORAD AGENA D DEB *
1 05824U 70025MJ  26036.49683916  .00001539  00000-0  12172-2 0  9999
2 05824  97.8953 126.8261 0598050 259.0590  94.2736 13.30950165659447
Epoch: 2026-02-05T11:55Z
TLE epoch observation values (Epoch: 2026-02-05T11:55:26.903Z)
Latitude
0.00001°
Longitude
172.31578°
Altitude
1,206.047 km
Speed
7.222 km/s
True Right ascension
08h 27m 18s
True Declination
0° 00' 00"
Sunlit
Object was in full shadow at epoch
Visualization orbit readout
Latitude
Unknown
Longitude
Unknown
Altitude
Unknown
Speed
Unknown
Apparent Right ascension
Unknown
Apparent Declination
Unknown
Sunlit
N/A
Visualization observer readout
Local Sidereal Time
05:56:41
Azimuth
Unknown
Elevation
Unknown
Doppler factor
Unknown
Orbital elements
Apogee altitude
1,590.057 km
Perigee altitude
690.763 km
Semi-major axis
7,518.547 km
Eccentricity
0.05981
Inclination
97.8953°
RAAN
126.8261°
Arg. of periapsis
259.059°
True anomaly
101.05398°
Mean anomaly
94.2736°
Eccentric anomaly
97.66952°
Mean motion
3.32922 °/min
Orbital period
108.13 mins
BSTAR
0.0012172
Loading maneuver chart data...
Computing Atmospheric mass density...

Documentation

Showing up to 5 results
|